Hourly Weather Roundup
Issued by NWS Central Illinois

Home | Current Version | Previous Version | Text Only | Print | Product List | Glossary On
Versions: 1 2 3 4 5 6 7 8 9 10 11 12 13 14 15 16 17 18 19 20 21 22 23 24 25 26 27 28 29 30 31 32 33 34 35 36 37 38 39 40 41 42 43 44 45 46 47 48 49 50
000
NZUS43 KILX 240210
HWRILX

Area Weather Roundup
National Weather Service Lincoln IL
900 PM CDT SAT SEP 23 2017

NOTE:  "FAIR" indicates few or no clouds below 12,000 feet, with
       no sigificant weather and/or obstructions to visibility.


CITY           SKY/WX    TMP DP  RH WIND       PRES   REMARKS
Bloomington    CLEAR     77  64  64 SE6       30.05S
Champaign      CLEAR     76  63  64 E5        30.05R
Danville       CLEAR     72  66  82 SE5       30.03S
Decatur        CLEAR     77  61  57 S7        30.03S
Effingham      CLEAR     74  62  64 E5        30.05R
Flora          CLEAR     73  62  69 E3        30.04R
Galesburg      CLEAR     76  64  65 E3        30.02S
Jacksonville   CLEAR     72  59  64 SE3       30.01S
Lacon          CLEAR     79  62  56 SE5       30.01S HX  80
Lawrenceville  CLEAR     76  66  71 E5        30.04S
Litchfield     CLEAR     74  62  67 SE3       30.03R
$$


CITY           SKY/WX    TMP DP  RH WIND       PRES   REMARKS
Lincoln        CLEAR     77  64  62 CALM      30.02S
Macomb         CLEAR     69  64  81 CALM      30.03S
Mattoon        CLEAR     78  63  59 SE5       30.04R HX  80
Mt Carmel AP   CLEAR     72  63  71 CALM      30.04S
Olney-Noble AP CLEAR     74  62  65 CALM      30.04S
Paris AP       CLEAR     74  63  67 SE5       30.06R
Peoria         PTCLDY    82  63  52 SE5       30.02R HX  83
Pontiac        CLEAR     73  68  84 SE6       30.05R
Rantoul        CLEAR     78  68  70 SE3       30.05R HX  81
Robinson       CLEAR     67  64  88 CALM      30.05S
Springfield    CLEAR     75  62  64 CALM      30.02R
Taylorville    CLEAR     76  62  60 SE5       30.02S
$$

...REGIONAL REPORTS...


CITY           SKY/WX    TMP DP  RH WIND       PRES   REMARKS
Chicago O`Hare CLEAR     83  65  54 E8        30.04S HX  85
Kankakee       CLEAR     75  67  75 SE5       30.05S
Moline         CLEAR     78  63  59 SE8       30.00R HX  80
Mount Sterling CLEAR     72  64  75 CALM      30.01R
Mount Vernon     N/A     75  61  61 E3        30.03R
Pittsfield     CLEAR     76  60  57 SE5       30.02S
Quincy         CLEAR     75  61  61 SE5       30.00R
Rockford       CLEAR     77  65  66 SE3       30.04S
$$


CITY           SKY/WX    TMP DP  RH WIND       PRES   REMARKS
Burlington     CLEAR     80  64  58 SE5       30.00R HX  82
Cedar Rapids   CLEAR     77  63  61 SE3       29.99R
Des Moines     PTCLDY    82  66  58 SE7       29.95S HX  84
Kirksville     CLEAR     76  64  66 SE7       30.00R
Ottumwa        CLEAR     75  64  68 SE7       29.98R
St Louis       PTCLDY    78  64  61 E6        30.01R HX  80
$$


CITY           SKY/WX    TMP DP  RH WIND       PRES   REMARKS
Terre Haute    CLEAR     71  62  73 CALM      30.05S
Evansville     CLEAR     73  65  75 CALM      30.04R
Indianapolis   CLEAR     79  62  56 SE5       30.07S HX  80
Lafayette      CLEAR     75  66  73 CALM      30.05S
Madison        CLEAR     73  66  78 CALM      30.03R
Milwaukee      CLEAR     78  66  66 S3        30.05S HX  80
$$





USA.gov is the U.S. government's official web portal to all federal, state and local government web resources and services.